Location: Laterina
(43.5167°N, 11.7167°E)
Time: 14:07:21
(UTC+00:00)

Cosmos 2026 Rocket - Pass Details

Date: 23 January 2021
Orbit: 940 x 1000 km, 82.9° (Epoch: 28 February)

Event Time Altitude Azimuth Distance (km) Brightness Sun altitude
Rises 03:41:56 0° 5° (N) 3,711 7.1 -31.7°
Reaches altitude 10° 03:45:21 10° 23° (NNE) 2,766 6.6 -31.1°
Maximum altitude 03:49:40 19° 66° (ENE) 2,199 6.5 -30.3°
Drops below altitude 10° 03:53:58 10° 109° (ESE) 2,767 7.2 -29.6°
Sets 03:57:22 0° 127° (SE) 3,713 7.8 -28.9°
